BLY13EX EGNH-CYHM

Flight info

Callsign BLY13EX
Flight time N/A
Altitude 36000
Route PENIL UL70 BABRA M144 BAGSO DCT DUB DCT PELIG DCT SHA DCT ELSOX/M076F360 DCT DINIM DCT 52N020W 53N030W 53N040W 51N050W DCT ALLRY/N0434F360 N482C MIILS Q907 AGNOB DCT ILUSI TICAT1
Aircraft A319/M-SDE3FGHIRWY/LB1

Departure

Time 2026-04-28 21:19
Airport Blackpool Airport (EGNH)

Arrival

Time N/A
Airport John C. Munro Hamilton International Airport (CYHM)
Time Latitude Longitude Altitude Speed Heading
2026-04-28 20:57 53.77743 -3.04172 31 ft 0 kts 245°
2026-04-28 21:15 53.77743 -3.04173 55 ft 1 kts 245°
2026-04-28 21:15 53.77722 -3.04179 50 ft 7 kts 168°
2026-04-28 21:15 53.77673 -3.04159 50 ft 8 kts 174°
2026-04-28 21:15 53.77623 -3.04189 50 ft 8 kts 209°
2026-04-28 21:16 53.77572 -3.04240 50 ft 11 kts 212°
2026-04-28 21:16 53.77495 -3.04321 50 ft 14 kts 212°
2026-04-28 21:16 53.77409 -3.04395 50 ft 14 kts 190°
2026-04-28 21:16 53.77312 -3.04387 50 ft 14 kts 166°
2026-04-28 21:17 53.77227 -3.04305 48 ft 15 kts 119°
2026-04-28 21:17 53.77222 -3.04246 47 ft 0 kts 94°
2026-04-28 21:18 53.77211 -3.04019 50 ft 56 kts 94°
2026-04-28 21:19 53.77160 -3.02950 50 ft 123 kts 95°
2026-04-28 21:19 53.77078 -3.01303 409 ft 143 kts 93°
2026-04-28 21:19 53.76994 -2.99626 1170 ft 139 kts 92°
2026-04-28 21:19 53.76916 -2.98005 1890 ft 139 kts 94°
2026-04-28 21:20 53.76826 -2.96284 2317 ft 157 kts 95°
2026-04-28 21:20 53.76721 -2.94317 2689 ft 177 kts 94°
2026-04-28 21:20 53.76607 -2.92188 3264 ft 185 kts 94°
2026-04-28 21:20 53.76490 -2.89995 3920 ft 189 kts 95°
2026-04-28 21:21 53.76370 -2.87768 4572 ft 192 kts 94°
2026-04-28 21:21 53.76248 -2.85478 5012 ft 199 kts 94°
2026-04-28 21:21 53.76480 -2.83215 5023 ft 200 kts 60°
2026-04-28 21:21 53.77575 -2.81798 5025 ft 207 kts 19°
2026-04-28 21:22 53.79029 -2.81580 5033 ft 211 kts
2026-04-28 21:22 53.80496 -2.81511 5029 ft 211 kts
2026-04-28 21:22 53.81961 -2.81454 5033 ft 211 kts
2026-04-28 21:22 53.82950 -2.81414 5034 ft 210 kts
2026-04-28 21:23 53.84889 -2.81328 5033 ft 210 kts
2026-04-28 21:23 53.86350 -2.81502 5024 ft 216 kts 346°
2026-04-28 21:23 53.87581 -2.82985 5032 ft 225 kts 309°
2026-04-28 21:23 53.88075 -2.85492 5033 ft 230 kts 270°
2026-04-28 21:24 53.87953 -2.88229 5027 ft 230 kts 270°
2026-04-28 21:24 53.88058 -2.90923 5034 ft 229 kts 277°
2026-04-28 21:24 53.88269 -2.93600 5030 ft 229 kts 279°
2026-04-28 21:24 53.88487 -2.96276 5031 ft 229 kts 278°
2026-04-28 21:25 53.88688 -2.98960 5033 ft 229 kts 277°
2026-04-28 21:25 53.88871 -3.01640 5031 ft 229 kts 277°
2026-04-28 21:25 53.89040 -3.04327 5033 ft 229 kts 276°
2026-04-28 21:25 53.89194 -3.07015 5021 ft 230 kts 276°
2026-04-28 21:26 53.89340 -3.09706 5017 ft 230 kts 276°
2026-04-28 21:26 53.89483 -3.12406 5029 ft 230 kts 276°
2026-04-28 21:26 53.89625 -3.15103 5032 ft 230 kts 276°
2026-04-28 21:26 53.89758 -3.17829 5034 ft 233 kts 272°
2026-04-28 21:27 53.89523 -3.20525 5032 ft 232 kts 249°
2026-04-28 21:27 53.88709 -3.22942 5164 ft 247 kts 225°
2026-04-28 21:27 53.87419 -3.25077 5575 ft 271 kts 220°
2026-04-28 21:27 53.86012 -3.27327 6237 ft 284 kts 220°
2026-04-28 21:28 53.84563 -3.29657 7098 ft 289 kts 221°
2026-04-28 21:28 53.83095 -3.32024 7932 ft 294 kts 220°
2026-04-28 21:28 53.81598 -3.34429 8777 ft 299 kts 220°
2026-04-28 21:28 53.80057 -3.36899 9632 ft 304 kts 220°
2026-04-28 21:29 53.78514 -3.39376 10441 ft 309 kts 220°
2026-04-28 21:29 53.76909 -3.41948 10835 ft 329 kts 220°
2026-04-28 21:29 53.75189 -3.44689 11178 ft 348 kts 220°
2026-04-28 21:29 53.73405 -3.47530 11825 ft 356 kts 220°
2026-04-28 21:30 53.71591 -3.50424 12545 ft 361 kts 221°
2026-04-28 21:30 53.69751 -3.53359 13266 ft 367 kts 220°
2026-04-28 21:30 53.67898 -3.56348 14008 ft 372 kts 223°
2026-04-28 21:30 53.66400 -3.59950 14639 ft 381 kts 244°
2026-04-28 21:31 53.65477 -3.64167 15272 ft 386 kts 251°
2026-04-28 21:31 53.64619 -3.68474 15927 ft 389 kts 251°
2026-04-28 21:31 53.63759 -3.72811 16539 ft 393 kts 251°
2026-04-28 21:31 53.62883 -3.77211 17140 ft 398 kts 251°
2026-04-28 21:32 53.62285 -3.80202 17544 ft 401 kts 251°
2026-04-28 21:32 53.61387 -3.84689 18139 ft 406 kts 251°
2026-04-28 21:32 53.60476 -3.89217 18719 ft 411 kts 251°
2026-04-28 21:32 53.59551 -3.93800 19235 ft 415 kts 251°
2026-04-28 21:33 53.58617 -3.98421 19768 ft 419 kts 251°
2026-04-28 21:33 53.57672 -4.03087 20309 ft 423 kts 251°
2026-04-28 21:33 53.56718 -4.07783 20861 ft 426 kts 251°
2026-04-28 21:33 53.55755 -4.12517 21393 ft 430 kts 251°
2026-04-28 21:34 53.54780 -4.17291 21901 ft 434 kts 251°
2026-04-28 21:34 53.53790 -4.22100 22422 ft 437 kts 251°
2026-04-28 21:34 53.52788 -4.26955 22953 ft 441 kts 251°
2026-04-28 21:34 53.51779 -4.31838 23481 ft 444 kts 251°
2026-04-28 21:35 53.50761 -4.36762 23982 ft 448 kts 251°
2026-04-28 21:35 53.49735 -4.41720 24405 ft 451 kts 251°
2026-04-28 21:35 53.48698 -4.46716 24809 ft 455 kts 251°
2026-04-28 21:35 53.47653 -4.51744 25210 ft 458 kts 251°
2026-04-28 21:36 53.46598 -4.56800 25605 ft 461 kts 251°
2026-04-28 21:36 53.45531 -4.61898 25986 ft 464 kts 251°
2026-04-28 21:36 53.44458 -4.67014 26375 ft 466 kts 251°
2026-04-28 21:36 53.43374 -4.72160 26781 ft 469 kts 251°
2026-04-28 21:37 53.42285 -4.77324 27168 ft 471 kts 251°
2026-04-28 21:37 53.41188 -4.82516 27541 ft 474 kts 251°
2026-04-28 21:37 53.40082 -4.87746 27915 ft 477 kts 251°
2026-04-28 21:37 53.38966 -4.93006 28287 ft 480 kts 251°
2026-04-28 21:38 53.37843 -4.98290 28662 ft 483 kts 251°
2026-04-28 21:38 53.36708 -5.03605 29029 ft 486 kts 251°
2026-04-28 21:38 53.35565 -5.08938 29393 ft 489 kts 251°
2026-04-28 21:38 53.34412 -5.14302 29741 ft 491 kts 251°
2026-04-28 21:39 53.33255 -5.19691 30103 ft 493 kts 251°
2026-04-28 21:39 53.32092 -5.25097 30464 ft 495 kts 251°
2026-04-28 21:39 53.30919 -5.30525 30748 ft 497 kts 251°
2026-04-28 21:39 53.29736 -5.35977 31049 ft 500 kts 251°
2026-04-28 21:40 53.28546 -5.41446 31338 ft 502 kts 251°
2026-04-28 21:40 53.27353 -5.46924 31614 ft 504 kts 251°
2026-04-28 21:40 53.26150 -5.52432 31899 ft 505 kts 251°
2026-04-28 21:40 53.24943 -5.57940 32303 ft 504 kts 251°
2026-04-28 21:41 53.23722 -5.63495 32707 ft 503 kts 251°
2026-04-28 21:41 53.22528 -5.68905 33105 ft 502 kts 251°
2026-04-28 21:41 53.21303 -5.74427 33494 ft 501 kts 251°